Back to catalog

STARLINK-33894

AliveCommunicationsVLEO
NORAD 63697·PAYLOAD·🇺🇸 United States

Launched Apr 28, 2025 from Vandenberg Space Force Base

Loading…

Next Passes (next 24 hours)

TLE

FreshSource: CelesTrak SupGP

Epoch: Sep 14, 2026, 14:47 UTC

1 63697C 25087A   26257.61645833 -.00024592  00000+0 -72725-3 0  2577
2 63697  53.1588  57.5670 0001308  87.7158  64.1161 15.34373947    17

Track STARLINK-33894 in real time with AllMySat

Download on the App Store